Overview Statistics Trail Chart Weather Telemetry Raw packets
 

This is the latest recevied weather packets stored in our database for station/object KB1RMA-4. If no packets are shown the sender has not sent any weather packets the latest 10 day(s).

<< 25 26 27 28 29 30 31 >>
Time Temp. Humidity Pressure Rain* Wind** Luminosity Snow
1788460158 21.67° C 84% 1013.4 hPa 0 mm - 106 W/m² -
1788459856 21.67° C 83% 1013.4 hPa 0 mm - 126 W/m² -
1788459552 22.22° C 83% 1013.6 hPa 0 mm - 145 W/m² -
1788459247 22.22° C 82% 1013.6 hPa 0 mm - 153 W/m² -
1788458947 22.78° C 81% 1013.5 hPa 0 mm - 214 W/m² -
1788458647 22.78° C 81% 1013.5 hPa 0 mm - 232 W/m² -
1788458341 22.78° C 82% 1013.9 hPa 0 mm - 274 W/m² -
1788458041 22.78° C 82% 1013.7 hPa 0 mm - 153 W/m² -
1788457735 22.78° C 80% 1013.6 hPa 0 mm - 233 W/m² -
1788457431 22.78° C 81% 1013.8 hPa 0 mm - 366 W/m² -
1788457130 22.22° C 83% 1013.7 hPa 0 mm - 727 W/m² -
1788456826 22.22° C 83% 1013.5 hPa 0 mm - 344 W/m² -
1788456522 22.22° C 84% 1013.5 hPa 0 mm - 304 W/m² -
1788456216 21.67° C 84% 1013.5 hPa 0 mm - 354 W/m² -
1788455911 22.22° C 83% 1013.5 hPa 0 mm - 308 W/m² -
1788455607 22.22° C 84% 1013.5 hPa 0 mm - 274 W/m² -
1788455306 22.22° C 84% 1013.6 hPa 0 mm - 233 W/m² -
1788455001 22.22° C 83% 1013.5 hPa 0 mm - 359 W/m² -
1788454699 22.78° C 83% 1013.6 hPa 0 mm - 236 W/m² -
1788454394 21.67° C 85% 1013.3 hPa 0 mm - 933 W/m² -
1788454089 21.11° C 86% 1013.5 hPa 0 mm - 405 W/m² -
1788453784 21.11° C 87% 1013.6 hPa 0 mm - 181 W/m² -
1788453483 20.56° C 86% 1013.4 hPa 0 mm - 212 W/m² -
1788453181 21.11° C 87% 1013.2 hPa 0 mm - 283 W/m² -
1788452876 20.56° C 87% 1013.5 hPa 0 mm - 227 W/m² -

* Rain latest hour (hover to see other rain measurements)
** Current wind speed in m/s (hover to see current wind gust speed)